Total_Precipitation_Accumulation
0.13 0.12 0.10 0.12 0.13 0.12 0.08 0.03 0.01 0.01 0.01 0.01 0.02 0.02 0.03 0.04 0.05 0.07 0.04 0.02 0.01 0.01 0.05 0.11 0.15 0.17 0.17 0.15 0.12 0.08 0.07 0.09 0.14 0.17 0.18 0.20 0.20 0.20 0.20 0.21 0.23 0.25 0.27 0.24 0.21 0.18 0.12 0.07 0.05
0.16 0.19 0.23 0.24 0.14 0.11 0.06 0.02 0.02 0.02 0.02 0.02 0.02 0.04 0.06 0.06 0.08 0.06 0.05 0.03 0.03 0.04 0.06 0.10 0.16 0.20 0.20 0.16 0.11 0.07 0.07 0.10 0.14 0.17 0.19 0.20 0.21 0.20 0.21 0.18 0.17 0.18 0.16 0.12 0.10 0.06 0.03 0.02 0.02
0.24 0.30 0.43 0.31 0.13 0.08 0.05 0.02 0.03 0.03 0.03 0.03 0.03 0.05 0.10 0.12 0.11 0.09 0.06 0.05 0.05 0.07 0.08 0.13 0.18 0.22 0.22 0.17 0.11 0.09 0.09 0.10 0.15 0.18 0.19 0.23 0.23 0.23 0.22 0.16 0.11 0.11 0.08 0.06 0.04 0.02 0.02 0.01 0.01
0.37 0.57 0.56 0.35 0.13 0.04 0.03 0.03 0.04 0.05 0.04 0.04 0.04 0.07 0.13 0.13 0.14 0.12 0.09 0.08 0.08 0.10 0.11 0.17 0.21 0.26 0.25 0.20 0.14 0.11 0.10 0.12 0.16 0.19 0.20 0.24 0.26 0.28 0.23 0.11 0.07 0.07 0.04 0.03 0.02 0.01 0.01 0.01 0.01
0.59 0.72 0.55 0.31 0.13 0.05 0.03 0.04 0.05 0.06 0.06 0.06 0.06 0.13 0.16 0.15 0.17 0.18 0.15 0.12 0.11 0.13 0.17 0.22 0.25 0.27 0.29 0.24 0.19 0.15 0.13 0.15 0.16 0.19 0.20 0.22 0.25 0.29 0.24 0.10 0.05 0.04 0.03 0.02 0.02 0.01 0.01 0.01 0.01
0.89 0.76 0.56 0.29 0.10 0.07 0.04 0.04 0.06 0.08 0.08 0.10 0.12 0.21 0.28 0.25 0.31 0.33 0.28 0.22 0.20 0.19 0.23 0.31 0.37 0.34 0.32 0.32 0.27 0.21 0.18 0.18 0.19 0.20 0.21 0.22 0.23 0.26 0.23 0.11 0.04 0.02 0.02 0.01 0.01 0.01 0.01 0.01 0.01
0.87 0.69 0.46 0.25 0.10 0.08 0.06 0.06 0.08 0.10 0.13 0.14 0.15 0.28 0.38 0.43 0.47 0.50 0.48 0.43 0.36 0.31 0.31 0.33 0.41 0.45 0.42 0.38 0.37 0.34 0.28 0.24 0.23 0.24 0.25 0.21 0.19 0.21 0.19 0.11 0.04 0.03 0.03 0.02 0.02 0.02 0.02 0.02 0.01
0.80 0.79 0.43 0.25 0.14 0.09 0.07 0.08 0.10 0.13 0.17 0.17 0.19 0.28 0.41 0.49 0.56 0.68 0.73 0.72 0.60 0.52 0.48 0.40 0.39 0.42 0.45 0.43 0.37 0.37 0.34 0.30 0.27 0.26 0.24 0.19 0.17 0.18 0.16 0.10 0.05 0.03 0.03 0.03 0.03 0.03 0.02 0.02 0.01
0.79 0.87 0.46 0.22 0.15 0.13 0.11 0.11 0.11 0.14 0.20 0.22 0.25 0.27 0.37 0.53 0.68 0.83 0.94 0.98 0.85 0.74 0.70 0.57 0.44 0.40 0.39 0.41 0.38 0.39 0.37 0.32 0.29 0.26 0.23 0.20 0.20 0.19 0.14 0.08 0.05 0.04 0.04 0.03 0.03 0.02 0.02 0.01 0.00
0.85 0.72 0.36 0.19 0.16 0.18 0.18 0.16 0.16 0.22 0.27 0.31 0.37 0.40 0.49 0.68 0.84 0.88 0.95 0.99 0.91 0.77 0.72 0.67 0.58 0.49 0.44 0.40 0.37 0.38 0.34 0.32 0.28 0.23 0.21 0.21 0.20 0.18 0.14 0.09 0.06 0.05 0.05 0.04 0.03 0.02 0.01 0.01 0.00
0.74 0.50 0.34 0.26 0.24 0.23 0.27 0.24 0.21 0.27 0.30 0.27 0.37 0.47 0.61 0.82 0.91 0.94 0.96 1.06 1.06 0.92 0.78 0.68 0.63 0.59 0.52 0.44 0.37 0.34 0.30 0.28 0.27 0.23 0.20 0.19 0.19 0.19 0.16 0.10 0.08 0.07 0.06 0.06 0.05 0.03 0.01 0.00 0.01
0.64 0.43 0.41 0.34 0.30 0.30 0.33 0.31 0.27 0.26 0.25 0.23 0.32 0.49 0.65 0.87 0.92 0.97 0.98 1.09 1.22 1.17 0.98 0.83 0.74 0.67 0.60 0.51 0.40 0.33 0.28 0.25 0.23 0.22 0.22 0.20 0.16 0.14 0.13 0.08 0.06 0.05 0.05 0.05 0.04 0.02 0.02 0.01 0.00
0.64 0.50 0.45 0.42 0.36 0.35 0.37 0.36 0.36 0.29 0.27 0.31 0.38 0.55 0.76 0.96 1.12 1.15 1.17 1.22 1.30 1.29 1.19 1.01 0.91 0.81 0.72 0.63 0.50 0.38 0.32 0.26 0.23 0.22 0.21 0.19 0.16 0.14 0.12 0.08 0.06 0.04 0.04 0.04 0.03 0.02 0.01 0.01 0.01
0.60 0.54 0.49 0.49 0.44 0.41 0.48 0.41 0.43 0.41 0.37 0.42 0.49 0.59 0.79 0.97 1.23 1.30 1.35 1.31 1.22 1.25 1.28 1.21 1.06 0.93 0.81 0.71 0.57 0.46 0.37 0.31 0.27 0.23 0.21 0.19 0.17 0.15 0.13 0.09 0.08 0.06 0.05 0.04 0.04 0.03 0.02 0.02 0.01
0.61 0.65 0.58 0.56 0.54 0.49 0.55 0.56 0.42 0.40 0.42 0.44 0.47 0.57 0.79 0.96 1.15 1.25 1.34 1.41 1.31 1.33 1.39 1.34 1.26 1.17 0.97 0.83 0.73 0.58 0.46 0.36 0.31 0.28 0.25 0.21 0.18 0.18 0.15 0.12 0.08 0.08 0.08 0.06 0.06 0.05 0.04 0.03 0.03
0.80 0.81 0.70 0.54 0.56 0.55 0.61 0.60 0.37 0.34 0.40 0.42 0.41 0.51 0.72 0.96 1.15 1.22 1.31 1.44 1.49 1.47 1.48 1.48 1.34 1.33 1.26 1.10 0.92 0.73 0.58 0.48 0.39 0.35 0.32 0.29 0.23 0.21 0.21 0.18 0.14 0.12 0.10 0.10 0.09 0.08 0.07 0.05 0.04
0.89 0.75 0.59 0.50 0.48 0.55 0.62 0.58 0.39 0.30 0.35 0.37 0.39 0.45 0.57 0.77 1.07 1.20 1.20 1.32 1.52 1.56 1.52 1.60 1.50 1.42 1.47 1.41 1.20 1.01 0.86 0.69 0.58 0.49 0.40 0.38 0.36 0.33 0.31 0.25 0.22 0.21 0.20 0.16 0.14 0.11 0.10 0.09 0.08
0.56 0.51 0.47 0.47 0.42 0.50 0.57 0.54 0.44 0.33 0.31 0.36 0.39 0.43 0.48 0.56 0.80 0.95 1.03 1.21 1.44 1.62 1.67 1.70 1.74 1.66 1.69 1.76 1.61 1.35 1.14 0.98 0.86 0.74 0.65 0.57 0.47 0.45 0.41 0.34 0.31 0.29 0.28 0.26 0.23 0.18 0.15 0.13 0.14
0.38 0.43 0.40 0.36 0.33 0.44 0.46 0.46 0.46 0.42 0.35 0.34 0.36 0.39 0.42 0.48 0.60 0.75 0.88 1.11 1.31 1.45 1.61 1.61 1.66 1.75 1.77 1.76 1.63 1.42 1.20 1.09 1.04 0.97 0.92 0.81 0.68 0.58 0.50 0.45 0.44 0.40 0.34 0.30 0.28 0.26 0.23 0.20 0.20
0.46 0.48 0.41 0.37 0.33 0.39 0.41 0.41 0.45 0.48 0.43 0.35 0.31 0.32 0.35 0.47 0.52 0.59 0.72 0.92 1.09 1.20 1.31 1.42 1.46 1.56 1.62 1.59 1.55 1.54 1.56 1.40 1.25 1.13 1.01 0.92 0.87 0.80 0.69 0.59 0.54 0.51 0.47 0.41 0.37 0.38 0.36 0.33 0.33
0.53 0.48 0.41 0.38 0.35 0.40 0.40 0.43 0.42 0.43 0.44 0.39 0.34 0.33 0.35 0.47 0.48 0.51 0.58 0.78 0.88 0.97 1.09 1.17 1.27 1.35 1.36 1.49 1.59 1.62 1.63 1.56 1.31 1.08 0.94 0.96 1.01 1.00 0.90 0.79 0.74 0.70 0.68 0.62 0.58 0.58 0.55 0.50 0.49
0.60 0.40 0.39 0.38 0.49 0.56 0.40 0.51 0.40 0.38 0.41 0.41 0.37 0.36 0.39 0.45 0.47 0.51 0.55 0.66 0.72 0.77 0.91 1.01 1.10 1.20 1.22 1.34 1.37 1.31 1.19 1.16 1.09 1.03 1.02 1.07 1.10 1.10 1.06 1.02 0.94 0.85 0.82 0.77 0.81 0.87 0.83 0.76 0.64
0.51 0.39 0.46 0.48 0.51 0.51 0.34 0.42 0.43 0.38 0.46 0.47 0.42 0.43 0.45 0.43 0.41 0.50 0.54 0.56 0.61 0.62 0.67 0.81 0.96 1.02 1.04 1.10 1.16 1.23 1.17 1.11 1.13 1.12 1.04 0.99 0.97 1.02 1.09 1.09 1.05 0.93 0.84 0.82 0.84 0.86 0.89 0.86 0.80
0.50 0.60 0.66 0.65 0.75 0.70 0.31 0.33 0.39 0.40 0.49 0.48 0.39 0.41 0.43 0.42 0.44 0.46 0.42 0.46 0.57 0.53 0.50 0.60 0.73 0.90 0.97 1.00 1.05 1.10 1.08 1.02 1.00 1.04 1.02 1.01 0.95 0.90 0.92 0.98 0.98 0.98 0.95 0.92 0.94 0.97 0.98 0.98 0.96
0.78 1.11 1.37 1.22 1.05 0.58 0.21 0.25 0.37 0.38 0.41 0.44 0.41 0.36 0.37 0.39 0.39 0.40 0.39 0.46 0.50 0.47 0.44 0.47 0.54 0.69 0.82 0.85 0.87 0.93 1.03 1.03 0.94 0.92 0.96 0.95 0.91 0.87 0.89 0.96 1.00 1.00 1.00 1.03 1.05 1.03 0.97 0.96 0.94
0.80 0.97 1.12 0.84 0.53 0.28 0.17 0.23 0.31 0.31 0.33 0.33 0.28 0.27 0.31 0.32 0.30 0.31 0.32 0.34 0.32 0.30 0.34 0.40 0.45 0.49 0.55 0.60 0.67 0.76 0.85 0.92 0.86 0.80 0.80 0.78 0.74 0.76 0.83 0.90 0.95 0.98 0.99 1.01 1.02 1.00 0.96 0.93 0.91
0.77 0.75 0.63 0.73 0.49 0.31 0.20 0.19 0.23 0.23 0.23 0.23 0.22 0.24 0.26 0.25 0.22 0.22 0.23 0.23 0.20 0.21 0.24 0.28 0.31 0.34 0.38 0.40 0.46 0.54 0.61 0.71 0.79 0.77 0.76 0.73 0.72 0.68 0.68 0.73 0.78 0.83 0.86 0.88 0.92 0.92 0.86 0.83 0.80
0.76 0.63 0.70 1.06 0.77 0.42 0.19 0.15 0.22 0.23 0.23 0.23 0.22 0.21 0.20 0.18 0.18 0.19 0.20 0.19 0.15 0.14 0.15 0.16 0.19 0.25 0.28 0.30 0.33 0.38 0.47 0.54 0.63 0.67 0.67 0.65 0.63 0.62 0.60 0.60 0.60 0.63 0.69 0.75 0.81 0.82 0.79 0.77 0.73
0.72 0.81 0.82 0.82 0.61 0.51 0.32 0.20 0.19 0.21 0.22 0.22 0.20 0.18 0.16 0.15 0.16 0.16 0.16 0.14 0.14 0.12 0.12 0.14 0.18 0.22 0.24 0.25 0.28 0.31 0.37 0.43 0.48 0.51 0.53 0.54 0.55 0.56 0.55 0.57 0.56 0.55 0.56 0.61 0.68 0.73 0.75 0.76 0.73
0.59 0.59 0.70 0.91 0.65 0.50 0.41 0.24 0.16 0.16 0.18 0.19 0.18 0.17 0.16 0.16 0.15 0.13 0.11 0.11 0.12 0.13 0.14 0.15 0.19 0.21 0.23 0.24 0.26 0.28 0.32 0.36 0.39 0.43 0.43 0.45 0.48 0.48 0.46 0.45 0.46 0.47 0.47 0.50 0.55 0.61 0.64 0.67 0.69